K4AVM-13 Weather Reports


time (UTC)temp
C
wind
direction
speed
KPH
gust
KPH
rain 1hr
cm
rain 24hr
cm
rain mn
cm
humidity
%
barometer
mb
20260502182446 14 86 3.2 9.7 0.00 0.00 0.00 48 1014.3
20260502181942 14 218 3.2 4.8 0.00 0.00 0.00 48 1014.3
20260502181440 15 26 3.2 12.9 0.00 0.00 0.00 46 1014.6
20260502180939 14 168 1.6 4.8 0.00 0.00 0.00 47 1014.6
20260502180436 14 320 8.0 9.7 0.00 0.00 0.00 46 1014.9
20260502170355 12 132 0.0 1.6 0.00 0.00 0.00 51 1015.7
20260502164342 12 168 1.6 4.8 0.00 0.00 0.00 51 1015.5
20260502163838 12 14 4.8 9.7 0.00 0.00 0.00 50 1015.6
20260502163334 12 156 1.6 11.3 0.00 0.00 0.00 51 1015.7
20260502162832 12 159 0.0 4.8 0.00 0.00 0.00 54 1015.8
20260502162329 12 91 3.2 12.9 0.00 0.00 0.00 51 1015.6
20260502161826 12 140 6.4 9.7 0.00 0.00 0.00 53 1015.7
20260502161321 12 326 1.6 6.4 0.00 0.00 0.00 54 1015.7
20260502160819 12 26 3.2 6.4 0.00 0.00 0.00 53 1015.6
20260502160312 12 317 1.6 4.8 0.00 0.00 0.00 54 1015.8
20260502152242 12 184 1.6 3.2 0.00 0.00 0.00 56 1015.9
20260502151739 12 101 1.6 12.9 0.00 0.00 0.00 57 1015.7
20260502151236 12 343 6.4 11.3 0.00 0.00 0.00 57 1015.9
20260502150733 12 168 3.2 11.3 0.00 0.00 0.00 57 1016.1
20260502150230 12 119 3.2 3.2 0.00 0.00 0.00 58 1016.0
20260502130619 11 187 1.6 11.3 0.00 0.00 0.00 68 1015.5
20260502130116 11 139 0.0 3.2 0.00 0.00 0.00 69 1015.4
20260502123602 11 329 6.4 12.9 0.00 0.00 0.00 71 1015.4
20260502123058 11 262 1.6 6.4 0.00 0.00 0.00 73 1015.2
20260502122555 10 207 3.2 12.9 0.00 0.00 0.00 74 1015.1
20260502122052 11 149 1.6 6.4 0.00 0.00 0.00 76 1015.1
20260502121549 10 32 6.4 9.7 0.00 0.00 0.00 75 1015.0
20260502121047 10 124 8.0 14.5 0.00 0.00 0.00 75 1014.9
20260502120543 10 170 6.4 6.4 0.00 0.00 0.00 77 1014.9
20260502115538 10 315 3.2 4.8 0.00 0.00 0.00 80 1014.9
20260502115033 10 132 1.6 4.8 0.00 0.00 0.00 81 1014.9
20260502114530 10 25 3.2 6.4 0.00 0.00 0.00 82 1015.0
20260502114027 10 132 1.6 6.4 0.00 0.00 0.00 83 1015.1
20260502113525 10 327 3.2 4.8 0.00 0.00 0.00 83 1015.1
20260502113024 10 53 1.6 3.2 0.00 0.00 0.00 84 1015.2
20260502112521 10 173 0.0 4.8 0.00 0.00 0.00 85 1015.0
20260502112018 10 26 3.2 4.8 0.00 0.00 0.00 85 1015.0
20260502111515 10 140 1.6 1.6 0.00 0.00 0.00 85 1015.1
20260502111013 10 146 0.0 4.8 0.00 0.00 0.00 86 1015.1
20260502110510 10 147 0.0 3.2 0.00 0.00 0.00 86 1015.1
20260502110008 10 144 0.0 1.6 0.00 0.00 0.00 87 1015.1
20260502105505 10 147 0.0 1.6 0.00 0.00 0.00 87 1015.0
20260502105002 10 151 0.0 0.0 0.00 0.00 0.00 87 1014.9
20260502104459 10 151 0.0 0.0 0.00 0.00 0.00 87 1014.7
20260502103956 10 159 0.0 4.8 0.00 0.00 0.00 88 1014.8
20260502103454 10 175 0.0 1.6 0.00 0.00 0.00 88 1015.0
20260502102951 10 157 0.0 0.0 0.00 0.00 0.00 89 1014.8
20260502102448 10 158 0.0 0.0 0.00 0.00 0.00 89 1014.6
20260502101944 9 158 0.0 0.0 0.00 0.00 0.00 89 1014.7
20260502101443 9 150 0.0 0.0 0.00 0.00 0.00 89 1014.5
20260502100941 9 149 0.0 0.0 0.00 0.00 0.00 89 1014.3
20260502100439 9 117 0.0 0.0 0.00 0.00 0.00 89 1014.3
20260502091414 8 131 0.0 0.0 0.00 0.00 0.00 95 1014.0
20260502090910 8 132 0.0 0.0 0.00 0.00 0.00 94 1014.2
20260502090408 8 149 0.0 0.0 0.00 0.00 0.00 94 1014.1
20260502071257 9 149 0.0 0.0 0.00 0.00 0.00 89 1013.7
20260502070755 9 151 0.0 0.0 0.00 0.00 0.00 89 1013.8
20260502070252 10 150 0.0 0.0 0.00 0.00 0.00 89 1013.7
20260502065751 10 141 0.0 0.0 0.00 0.00 0.00 88 1013.7
20260502065249 10 154 0.0 0.0 0.00 0.00 0.00 88 1013.6
20260502064747 10 165 0.0 0.0 0.00 0.00 0.00 87 1013.6
20260502064244 10 135 0.0 1.6 0.00 0.00 0.00 87 1013.4
20260502063741 10 155 0.0 0.0 0.00 0.00 0.00 86 1013.8
20260502063239 10 144 0.0 0.0 0.00 0.00 0.00 85 1013.7
20260502062736 10 145 0.0 0.0 0.00 0.00 0.00 85 1013.6
20260502062234 10 149 0.0 0.0 0.00 0.00 0.00 84 1013.8
20260502061732 11 141 0.0 1.6 0.00 0.00 0.00 84 1013.9
20260502061230 11 151 0.0 0.0 0.00 0.00 0.00 84 1014.0
20260502060724 11 156 0.0 1.6 0.00 0.00 0.00 83 1013.9
20260502060221 11 160 0.0 0.0 0.00 0.00 0.00 82 1013.7
20260502055719 11 152 0.0 0.0 0.00 0.00 0.00 81 1013.8
20260502055216 11 166 0.0 1.6 0.00 0.00 0.00 80 1013.7
20260502054715 11 184 0.0 0.0 0.00 0.00 0.00 80 1013.7
20260502054213 11 155 1.6 3.2 0.00 0.00 0.00 80 1013.7
20260502053710 11 161 0.0 0.0 0.00 0.00 0.00 79 1014.0
20260502053207 12 136 0.0 1.6 0.00 0.00 0.00 79 1013.9
20260502052705 12 151 0.0 1.6 0.00 0.00 0.00 79 1013.9
20260502052203 12 152 0.0 0.0 0.00 0.00 0.00 79 1014.2
20260502051701 12 162 0.0 0.0 0.00 0.00 0.00 78 1014.0
20260502051159 12 122 0.0 1.6 0.00 0.00 0.00 78 1014.3
20260502050655 12 149 0.0 1.6 0.00 0.00 0.00 77 1014.1
20260502050151 12 149 0.0 0.0 0.00 0.00 0.00 77 1014.1
20260502045648 12 131 0.0 0.0 0.00 0.00 0.00 77 1014.2
20260502045145 12 136 1.6 1.6 0.00 0.00 0.00 76 1014.0
20260502044636 12 126 0.0 1.6 0.00 0.00 0.00 76 1014.2
20260502044132 12 137 0.0 1.6 0.00 0.00 0.00 75 1014.2
20260502043630 12 288 1.6 3.2 0.00 0.00 0.00 75 1014.3
20260502043127 12 159 0.0 1.6 0.00 0.00 0.00 75 1014.5
20260502042621 12 169 1.6 4.8 0.00 0.00 0.00 75 1014.3
20260502042118 12 156 0.0 1.6 0.00 0.00 0.00 75 1014.4
20260502041616 12 141 1.6 1.6 0.00 0.00 0.00 74 1014.2
20260502041113 12 112 1.6 11.3 0.00 0.00 0.00 73 1014.4
20260502040610 12 159 3.2 6.4 0.00 0.00 0.00 74 1014.3
20260502040107 13 171 0.0 1.6 0.00 0.00 0.00 74 1014.2
20260502035603 13 160 0.0 1.6 0.00 0.00 0.00 73 1014.1
20260502035100 13 133 0.0 1.6 0.00 0.00 0.00 73 1014.1
20260502034558 13 141 0.0 1.6 0.00 0.00 0.00 72 1014.1
20260502034056 13 135 0.0 0.0 0.00 0.00 0.00 72 1014.2
20260502033554 13 141 0.0 1.6 0.00 0.00 0.00 71 1014.4
20260502033051 13 170 0.0 1.6 0.00 0.00 0.00 71 1014.1
20260502032547 13 136 0.0 1.6 0.00 0.00 0.00 70 1014.3
20260502032044 13 161 0.0 1.6 0.00 0.00 0.00 69 1013.9
20260502031542 13 166 1.6 4.8 0.00 0.00 0.00 69 1014.0
20260502031039 13 149 0.0 3.2 0.00 0.00 0.00 69 1013.9
20260502030538 13 161 0.0 1.6 0.00 0.00 0.00 69 1013.6
20260502030035 13 169 1.6 3.2 0.00 0.00 0.00 67 1013.5
20260502025532 14 145 0.0 1.6 0.00 0.00 0.00 67 1013.5
20260502025031 14 159 1.6 1.6 0.00 0.00 0.00 66 1013.5
20260502024527 14 151 0.0 1.6 0.00 0.00 0.00 66 1013.4
20260502024026 14 161 0.0 1.6 0.00 0.00 0.00 65 1013.8
20260502023523 14 122 1.6 4.8 0.00 0.00 0.00 64 1013.9
20260502023020 14 161 0.0 3.2 0.00 0.00 0.00 64 1013.8
20260502022517 14 192 0.0 1.6 0.00 0.00 0.00 63 1013.7
20260502022014 15 132 0.0 3.2 0.00 0.00 0.00 62 1014.0
20260502021512 14 151 0.0 4.8 0.00 0.00 0.00 62 1013.9
20260502021009 14 117 0.0 1.6 0.00 0.00 0.00 62 1013.7
20260502020506 14 117 1.6 1.6 0.00 0.00 0.00 60 1013.7
20260502020003 13 153 0.0 12.9 0.00 0.00 0.00 61 1013.6
20260502015501 13 141 0.0 1.6 0.00 0.00 0.00 61 1013.6
20260502014957 13 150 0.0 0.0 0.00 0.00 0.00 61 1013.8
20260502014454 13 155 0.0 0.0 0.00 0.00 0.00 60 1013.6
20260502013951 14 151 0.0 0.0 0.00 0.00 0.00 59 1013.6
20260502013446 14 153 0.0 0.0 0.00 0.00 0.00 57 1013.3
20260502012943 15 150 0.0 0.0 0.00 0.00 0.00 56 1013.4
20260502012440 14 151 0.0 1.6 0.00 0.00 0.00 56 1013.5
20260502011938 14 151 0.0 0.0 0.00 0.00 0.00 57 1013.6
20260502011434 14 145 0.0 0.0 0.00 0.00 0.00 56 1013.3
20260502010931 15 150 0.0 0.0 0.00 0.00 0.00 55 1013.2
20260502010427 15 149 0.0 0.0 0.00 0.00 0.00 54 1013.1
20260502005924 15 151 0.0 0.0 0.00 0.00 0.00 53 1013.2
20260502005422 15 153 0.0 1.6 0.00 0.00 0.00 51 1013.1
20260502004920 16 134 0.0 0.0 0.00 0.00 0.00 50 1012.8
20260502004415 16 153 0.0 3.2 0.00 0.00 0.00 49 1012.7
20260502003913 16 141 1.6 1.6 0.00 0.00 0.00 48 1012.7
20260502003410 16 136 0.0 1.6 0.00 0.00 0.00 47 1012.7
20260502002906 16 106 1.6 1.6 0.00 0.00 0.00 46 1012.8
20260502002404 16 141 0.0 4.8 0.00 0.00 0.00 45 1012.8
20260502001901 16 161 0.0 1.6 0.00 0.00 0.00 45 1012.7
20260502001358 16 141 0.0 3.2 0.00 0.00 0.00 44 1012.6
20260502000855 16 159 0.0 1.6 0.00 0.00 0.00 44 1012.5
20260502000354 17 145 0.0 1.6 0.00 0.00 0.00 43 1012.8
20260501235850 17 168 0.0 1.6 0.00 0.00 0.00 43 1012.7
20260501235345 17 153 1.6 3.2 0.00 0.00 0.00 43 1012.7
20260501234841 17 170 3.2 4.8 0.00 0.00 0.00 44 1012.4
20260501234338 17 164 1.6 6.4 0.00 0.00 0.00 43 1012.6
20260501233837 17 119 3.2 4.8 0.00 0.00 0.00 43 1012.6
20260501233334 17 135 1.6 3.2 0.00 0.00 0.00 44 1012.4
20260501232829 17 166 0.0 1.6 0.00 0.00 0.00 44 1012.4
20260501232327 17 146 0.0 0.0 0.00 0.00 0.00 43 1012.4
20260501231824 18 159 0.0 1.6 0.00 0.00 0.00 43 1012.4
20260501231322 18 160 0.0 1.6 0.00 0.00 0.00 43 1012.3
20260501230820 18 158 0.0 3.2 0.00 0.00 0.00 41 1012.3
20260501230319 18 185 0.0 0.0 0.00 0.00 0.00 40 1012.4
20260501225816 18 219 1.6 6.4 0.00 0.00 0.00 39 1012.5
20260501225314 18 99 1.6 3.2 0.00 0.00 0.00 39 1012.3
20260501224809 18 203 3.2 4.8 0.00 0.00 0.00 38 1012.5
20260501224307 18 133 0.0 4.8 0.00 0.00 0.00 40 1012.6
20260501223803 18 175 0.0 1.6 0.00 0.00 0.00 39 1012.4
20260501223259 18 152 3.2 3.2 0.00 0.00 0.00 38 1012.7
20260501222755 18 112 4.8 4.8 0.00 0.00 0.00 38 1012.6
20260501222253 18 77 3.2 4.8 0.00 0.00 0.00 38 1012.6
20260501221749 18 134 3.2 11.3 0.00 0.00 0.00 37 1012.6
20260501221247 18 146 0.0 4.8 0.00 0.00 0.00 39 1012.6
20260501220744 19 192 3.2 6.4 0.00 0.00 0.00 37 1012.7
20260501220241 19 156 1.6 4.8 0.00 0.00 0.00 38 1012.7
20260501215738 19 122 3.2 6.4 0.00 0.00 0.00 37 1012.7
20260501215233 19 118 1.6 6.4 0.00 0.00 0.00 38 1012.6
20260501214729 20 168 0.0 4.8 0.00 0.00 0.00 39 1012.6
20260501214225 20 142 1.6 6.4 0.00 0.00 0.00 37 1012.7
20260501213721 21 113 1.6 1.6 0.00 0.00 0.00 35 1012.7
20260501213217 20 211 3.2 4.8 0.00 0.00 0.00 34 1012.6
20260501212708 21 94 0.0 3.2 0.00 0.00 0.00 36 1012.7
20260501212205 21 176 0.0 1.6 0.00 0.00 0.00 33 1012.8
20260501211701 20 149 1.6 6.4 0.00 0.00 0.00 34 1012.8
20260501211158 21 196 3.2 4.8 0.00 0.00 0.00 32 1013.1
20260501210650 21 141 1.6 4.8 0.00 0.00 0.00 35 1012.9
20260501210146 21 30 3.2 9.7 0.00 0.00 0.00 35 1012.8
20260501205642 20 101 1.6 9.7 0.00 0.00 0.00 36 1012.8
20260501205140 20 189 1.6 6.4 0.00 0.00 0.00 34 1012.8
20260501204636 20 170 1.6 4.8 0.00 0.00 0.00 34 1012.8
20260501204132 21 188 6.4 11.3 0.00 0.00 0.00 34 1012.8
20260501203629 20 131 3.2 4.8 0.00 0.00 0.00 33 1012.9
20260501203127 21 176 3.2 3.2 0.00 0.00 0.00 35 1013.1
20260501202624 21 187 3.2 12.9 0.00 0.00 0.00 35 1013.3
20260501202120 20 68 9.7 12.9 0.00 0.00 0.00 32 1013.2
20260501201618 20 111 3.2 4.8 0.00 0.00 0.00 32 1013.4
20260501201114 20 157 1.6 6.4 0.00 0.00 0.00 33 1013.5
20260501200611 20 145 3.2 6.4 0.00 0.00 0.00 33 1013.8
20260501200109 20 142 1.6 4.8 0.00 0.00 0.00 35 1013.8
20260501195607 21 107 0.0 4.8 0.00 0.00 0.00 36 1013.8
20260501195101 21 116 1.6 3.2 0.00 0.00 0.00 36 1013.9
20260501194557 21 193 1.6 6.4 0.00 0.00 0.00 34 1014.0
20260501194053 20 186 1.6 1.6 0.00 0.00 0.00 34 1013.9
20260501193550 20 123 0.0 3.2 0.00 0.00 0.00 34 1013.9
20260501193049 20 137 1.6 3.2 0.00 0.00 0.00 33 1014.2
20260501192545 20 103 3.2 4.8 0.00 0.00 0.00 35 1014.2
20260501192043 20 95 1.6 4.8 0.00 0.00 0.00 35 1014.4
20260501191540 20 139 4.8 9.7 0.00 0.00 0.00 36 1014.6
20260501191037 20 147 3.2 6.4 0.00 0.00 0.00 37 1014.4
20260501190532 20 127 1.6 6.4 0.00 0.00 0.00 36 1014.6
20260501190029 20 96 3.2 4.8 0.00 0.00 0.00 37 1014.6
20260501185525 20 115 1.6 4.8 0.00 0.00 0.00 40 1014.9
20260501185021 20 105 3.2 3.2 0.00 0.00 0.00 37 1015.0
20260501184517 19 147 4.8 6.4 0.00 0.00 0.00 37 1015.3
20260501184012 19 224 3.2 4.8 0.00 0.00 0.00 38 1015.0
20260501183510 19 193 1.6 4.8 0.00 0.00 0.00 39 1015.4
20260501183006 19 122 3.2 6.4 0.00 0.00 0.00 38 1015.2